{"data":{"norad_id":45377,"intl_designator":"2020-019T","name":"STARLINK-1305","alt_names":[],"object_type":"PAYLOAD","status":"ACTIVE","operator":null,"country":"US","launch_date":"2020-03-18","launch_site_code":"AFETR","launch_vehicle":null,"mission":null,"orbit_class":"UNKNOWN","rcs_meters":null,"size_class":null,"mass_kg":null,"dimensions":null,"purposes":["comms"],"wikipedia_slug":null,"has_3d_model":false,"image_url":null,"decayed_at":null,"tle_current":{"epoch":"2026-09-20T06:00:02.000160Z","epoch_age_seconds":36025,"freshness":"FRESH","line1":"1 45377U 20019T   26263.25002315  .00184787  24308-4  48548-3 0  9993","line2":"2 45377  53.0305 246.9806 0005905  67.8435 346.7467 15.94457018  6020","mean_motion":15.94457018,"eccentricity":0.0005905,"inclination_deg":53.0305,"raan_deg":246.9806,"arg_perigee_deg":67.8435,"mean_anomaly_deg":346.7467,"bstar":0.00048548,"rev_number":602,"period_min":90.312876656045,"perigee_km":285.89034411787,"apogee_km":293.76521051989,"semimajor_km":6667.9647773189,"source":"CELESTRAK","updated_at":"2026-09-20T09:00:38.231668Z"}}}